• Processing (Info)

  • MPEC 2010-G82 : 2010 GE30

    The following Minor Planet Electronic Circular may be linked-to from your own Web pages, but must not otherwise be redistributed electronically.

    A form allowing access to any MPEC is at the bottom of this page.


    Read MPEC 2010-G81 Read MPEC 2010-G83


    M.P.E.C. 2010-G82                                Issued 2010 Apr. 11, 16:53 UT
    
         The Minor Planet Electronic Circulars contain information on unusual
             minor planets and routine data on comets.  They are published
       on behalf of Commission 20 of the International Astronomical Union by the
              Minor Planet Center, Smithsonian Astrophysical Observatory,
                              Cambridge, MA 02138, U.S.A.
    
                 Prepared using the Tamkin Foundation Computer Network
    
                                  MPC@CFA.HARVARD.EDU
           URL https://www.minorplanetcenter.org/iau/mpc.html  ISSN 1523-6714
    
                                       2010 GE30
    
    Observations:
         K10G30E* C2010 04 10.17774 10 51 38.01 +08 06 08.1          22.2 V EG082G96
         K10G30E  C2010 04 10.18493 10 51 38.30 +08 05 41.8          21.3 V EG082G96
         K10G30E  C2010 04 10.19212 10 51 38.48 +08 05 14.7          21.5 V EG082G96
         K10G30E  C2010 04 10.19927 10 51 38.70 +08 04 47.8          21.6 V EG082G96
         K10G30E  C2010 04 10.23630 10 51 39.81 +08 02 29.3          21.8 V EG082G96
         K10G30E  C2010 04 10.24495 10 51 40.10 +08 01 57.0          21.4 V EG082G96
         K10G30E  C2010 04 10.25370 10 51 40.35 +08 01 24.0          21.2 V EG082G96
         K10G30E  C2010 04 10.26252 10 51 40.60 +08 00 51.0          22.0 V EG082G96
         K10G30E  C2010 04 10.28375 10 51 41.16 +07 59 29.7          21.6 R EG082H01
         K10G30E  C2010 04 10.29055 10 51 41.39 +07 59 04.0          20.8 R EG082H01
         K10G30E  C2010 04 10.29880 10 51 41.68 +07 58 33.3          21.4 R EG082H01
         K10G30E KC2010 04 10.31668 10 51 42.31 +07 57 26.1          21.9 R EG082H01
         K10G30E  C2010 04 11.08574610 52 24.70 +07 09 27.6          20.9 V EG082H21
         K10G30E  C2010 04 11.09287210 52 24.94 +07 09 01.3          21.3 V EG082H21
         K10G30E  C2010 04 11.10118610 52 25.22 +07 08 30.8          21.0 V EG082H21
         K10G30E  C2010 04 11.11425010 52 25.77 +07 07 40.9          21.2 V EG082H21
         K10G30E KC2010 04 11.21844 10 52 30.56 +07 01 19.7          19.6 R EG082926
         K10G30E  C2010 04 11.22566 10 52 30.75 +07 00 50.9          22.0 V EG082G96
         K10G30E  C2010 04 11.23206 10 52 31.00 +07 00 27.1          21.5 V EG082G96
         K10G30E KC2010 04 11.23225 10 52 31.05 +07 00 27.9          20.4 R EG082926
         K10G30E  C2010 04 11.23863 10 52 31.18 +07 00 02.9          21.0 V EG082G96
         K10G30E  C2010 04 11.24520 10 52 31.44 +06 59 38.0          21.3 V EG082G96
         K10G30E KC2010 04 11.24604 10 52 31.54 +06 59 35.6          20.3 R EG082926
    
    Observer details:
    926 Tenagra II Observatory.  Observers P. R. Holvorcem, M. Schwartz.  Measurer
        P. R. Holvorcem.  0.81-m f/7 Ritchey-Chretien + CCD.
    G96 Mt. Lemmon Survey.  Observers R. A. Kowalski, G. M. Hupe, S. M. Larson.
        Measurers J. D. Ahern, E. C. Beshore, A. Boattini, G. J. Garradd,
        A. R. Gibbs, A. D. Grauer, R. E. Hill, R. A. Kowalski, S. M. Larson,
        R. H. McNaught.  1.5-m reflector + CCD.
    H01 Magdalena Ridge Observatory, Socorro.  Observers W. H. Ryan, E. V. Ryan.
        Measurer W. H. Ryan.  2.4-m f/8.9 reflector + CCD.
    H21 Astronomical Research Observatory, Westfield.  Observer R. Holmes.
        Measurer S. Foglia.
    
    Orbital elements:
    2010 GE30                                                Earth MOID = 0.1353 AU
    Epoch 2010 July 23.0 TT = JDT 2455400.5                 MPC
    M  53.44620              (2000.0)            P               Q
    n   0.49509736     Peri.  175.36760     -0.98143153     +0.18814444
    a   1.5824949      Node    15.62811     -0.18013711     -0.83719395
    e   0.2831754      Incl.    7.96604     -0.06589978     -0.51352504
    P   1.99           H   23.6           G   0.15           U   8
    Residuals in seconds of arc
    100410 G96  0.4-  0.2-    100410 H01  0.1-  0.1-    100411 926  0.4+  0.7+
    100410 G96  0.7+  0.3+    100410 H01  0.1-  0.2-    100411 G96  0.4-  0.3-
    100410 G96  0.1+  0.1+    100410 H01  0.0   0.1+    100411 G96  0.0   0.2-
    100410 G96  0.2+  0.1-    100410 H01  0.0   0.2+    100411 926  0.7+  0.5+
    100410 G96  0.1-  0.0     100411 H21  0.1-  0.2-    100411 G96  0.7-  0.2+
    100410 G96  0.3+  0.1+    100411 H21  0.4-  0.0     100411 G96  0.2-  0.1-
    100410 G96  0.0   0.1-    100411 H21  0.7-  0.5+    100411 926  0.9+  0.2-
    100410 G96  0.4-  0.0     100411 H21  0.5+  0.7-
    
    Ephemeris:
    2010 GE30                a,e,i = 1.58, 0.28, 8                   q = 1.1344
    Date    TT    R. A. (2000) Decl.     Delta      r     Elong.  Phase     V
    2010 04 04    10 47.75   +14 29.2    0.162    1.134   143.4    31.7    21.3
    2010 04 14    10 55.22   +04 09.5    0.168    1.136   139.6    34.9    21.4
    2010 04 24    11 08.74   -05 36.2    0.184    1.145   135.9    37.7    21.7
    2010 05 04    11 27.32   -13 52.6    0.208    1.159   132.7    39.7    22.1
    2010 05 14    11 49.76   -20 22.7    0.240    1.179   130.1    41.0    22.5
    2010 05 24    12 15.19   -25 15.8    0.279    1.204   127.9    41.5    22.9
    2010 06 03    12 42.64   -28 49.2    0.325    1.234   126.0    41.7    23.2
    
    Carl W. Hergenrother         (C) Copyright 2010 MPC           M.P.E.C. 2010-G82
    

    Read MPEC 2010-G81 Read MPEC 2010-G83


    MPEC number:

    Enter an MPEC number in one of the following forms:

    • 1997-B01 (the full form)
    • J97B01 (the packed version of the full form)
    • B01 (the abbreviated form)